Tracking 18852 objects as of 24-Nov-2017
HD Live streaming from Space Station
objects crossing your sky now

SL-16 DEB

Track SL-16 DEB now!
10-day predictions


NORAD ID: 23418
Int'l Code: 1994-077J
Perigee: 816.5 km
Apogee: 932.1 km
Inclination: 71.0 °
Period: 102.3 minutes
Semi major axis: 7245 km
RCS: 0.0032 m2 (small)
Launch date: November 24, 1994
Source: Commonwealth of Independent States (former USSR) (CIS)
Launch site: TYURATAM MISSILE AND SPACE COMPLEX (TTMTR)

Note: This is SATELLITE DEBRIS
aabbcc
Your satellite tracking list
Your tracking list is empty




NASA's NSSDC Master Catalog

Two Line Element Set (TLE):
1 23418U 94077J   17321.07359278  .00000281  00000-0  18821-3 0  9994
2 23418  71.0067 202.1179 0079773 218.3759 141.1669 14.07722920186840
Source of the keplerian elements: AFSPC